TimeEST,TemperatureF,Dew PointF,Humidity,Sea Level PressureIn,VisibilityMPH,Wind Direction,Wind SpeedMPH,Gust SpeedMPH,PrecipitationIn,Events,Conditions,WindDirDegrees,DateUTC
12:15 AM,-9999,-9999,N/A,29.68,5.0,SE,13.8,23.0,0.03,,Overcast,140,2013-11-27 05:15:00
12:35 AM,-9999,-9999,N/A,29.65,3.0,SE,13.8,25.3,0.09,,Overcast,130,2013-11-27 05:35:00
12:55 AM,-9999,-9999,N/A,29.61,4.0,SE,16.1,28.8,0.13,,Overcast,140,2013-11-27 05:55:00
1:15 AM,-9999,-9999,N/A,29.59,5.0,SSE,21.9,32.2,0.03,,Overcast,150,2013-11-27 06:15:00
1:35 AM,-9999,-9999,N/A,29.59,6.0,SSE,21.9,33.4,0.05,,Overcast,160,2013-11-27 06:35:00
1:55 AM,-9999,-9999,N/A,29.56,3.0,SSE,18.4,26.5,0.12,,Overcast,160,2013-11-27 06:55:00
2:15 AM,-9999,-9999,N/A,29.53,4.0,SSE,15.0,25.3,0.05,,Overcast,160,2013-11-27 07:15:00
2:35 AM,-9999,-9999,N/A,29.50,4.0,SSE,20.7,29.9,0.10,,Overcast,160,2013-11-27 07:35:00
2:55 AM,-9999,-9999,N/A,29.48,5.0,South,25.3,33.4,0.13,,Overcast,170,2013-11-27 07:55:00
3:15 AM,-9999,-9999,N/A,29.46,7.0,South,20.7,35.7,0.02,,Overcast,170,2013-11-27 08:15:00
3:35 AM,-9999,-9999,N/A,29.45,4.0,South,20.7,34.5,0.07,,Overcast,180,2013-11-27 08:35:00
3:55 AM,-9999,-9999,N/A,29.43,5.0,South,20.7,38.0,0.12,,Overcast,180,2013-11-27 08:55:00
4:15 AM,-9999,-9999,N/A,29.42,7.0,South,24.2,35.7,0.01,,Overcast,170,2013-11-27 09:15:00
4:35 AM,-9999,-9999,N/A,29.42,7.0,South,21.9,36.8,0.02,,Overcast,180,2013-11-27 09:35:00
4:55 AM,-9999,-9999,N/A,29.40,5.0,South,21.9,33.4,0.03,,Overcast,180,2013-11-27 09:55:00
5:15 AM,-9999,-9999,N/A,29.40,7.0,South,18.4,33.4,0.02,,Overcast,180,2013-11-27 10:15:00
5:35 AM,-9999,-9999,N/A,29.40,9.0,South,15.0,32.2,0.02,,Overcast,190,2013-11-27 10:35:00
5:55 AM,62.6,60.8,94,29.41,5.0,SSW,12.7,31.1,0.02,,Overcast,210,2013-11-27 10:55:00
6:15 AM,-9999,-9999,N/A,29.41,7.0,SW,12.7,20.7,N/A,,Overcast,220,2013-11-27 11:15:00
6:35 AM,-9999,-9999,N/A,29.41,7.0,SW,9.2,17.3,N/A,,Overcast,230,2013-11-27 11:35:00
6:55 AM,-9999,-9999,N/A,29.41,9.0,WSW,6.9,-,N/A,,Overcast,250,2013-11-27 11:55:00
7:15 AM,-9999,-9999,N/A,29.42,8.0,WSW,6.9,-,N/A,,Overcast,240,2013-11-27 12:15:00
7:35 AM,-9999,-9999,N/A,29.42,5.0,West,8.1,-,N/A,,Overcast,270,2013-11-27 12:35:00
7:55 AM,-9999,-9999,N/A,29.42,10.0,WNW,10.4,-,0.01,,Overcast,290,2013-11-27 12:55:00
8:15 AM,-9999,-9999,N/A,29.43,10.0,WNW,9.2,-,N/A,,Overcast,300,2013-11-27 13:15:00
8:35 AM,-9999,-9999,N/A,29.44,10.0,West,8.1,-,0.01,,Mostly Cloudy,280,2013-11-27 13:35:00
8:55 AM,-9999,-9999,N/A,29.43,7.0,NW,5.8,-,0.05,,Overcast,310,2013-11-27 13:55:00
9:15 AM,-9999,-9999,N/A,29.43,10.0,Calm,Calm,-,0.02,,Overcast,0,2013-11-27 14:15:00
9:35 AM,-9999,-9999,N/A,29.42,10.0,Calm,Calm,-,0.03,,Mostly Cloudy,0,2013-11-27 14:35:00
9:55 AM,-9999,-9999,N/A,29.43,10.0,WNW,11.5,-,0.06,,Overcast,290,2013-11-27 14:55:00
10:15 AM,-9999,-9999,N/A,29.42,10.0,NW,5.8,-,0.01,,Overcast,310,2013-11-27 15:15:00
10:35 AM,46.4,44.6,93,29.41,10.0,WNW,10.4,-,0.01,,Overcast,300,2013-11-27 15:35:00
10:55 AM,-9999,-9999,N/A,29.41,10.0,WNW,10.4,-,0.01,,Overcast,300,2013-11-27 15:55:00
11:15 AM,-9999,-9999,N/A,29.42,10.0,WNW,9.2,-,N/A,,Overcast,290,2013-11-27 16:15:00
11:35 AM,-9999,-9999,N/A,29.43,10.0,WNW,6.9,-,0.01,,Overcast,290,2013-11-27 16:35:00
11:55 AM,-9999,-9999,N/A,29.40,10.0,WNW,8.1,-,0.01,,Overcast,300,2013-11-27 16:55:00
12:15 PM,-9999,-9999,N/A,29.39,10.0,NW,10.4,-,N/A,,Overcast,310,2013-11-27 17:15:00
12:35 PM,-9999,-9999,N/A,29.39,10.0,NW,8.1,-,N/A,,Overcast,320,2013-11-27 17:35:00
12:55 PM,-9999,-9999,N/A,29.40,10.0,NNW,8.1,-,N/A,,Overcast,330,2013-11-27 17:55:00
1:15 PM,-9999,-9999,N/A,29.40,10.0,NW,5.8,-,0.01,,Overcast,320,2013-11-27 18:15:00
1:35 PM,-9999,-9999,N/A,29.39,10.0,NNW,5.8,-,0.04,,Overcast,340,2013-11-27 18:35:00
1:55 PM,-9999,-9999,N/A,29.38,10.0,NW,8.1,-,0.04,,Overcast,320,2013-11-27 18:55:00
2:15 PM,41.0,37.4,87,29.39,8.0,NW,8.1,-,0.02,,Overcast,320,2013-11-27 19:15:00
2:35 PM,39.2,37.4,93,29.37,10.0,NW,11.5,21.9,0.04,,Overcast,320,2013-11-27 19:35:00
2:55 PM,39.2,37.4,93,29.42,10.0,NW,12.7,18.4,0.05,,Overcast,310,2013-11-27 19:55:00
3:15 PM,39.2,35.6,87,29.39,8.0,NW,12.7,18.4,0.03,,Overcast,320,2013-11-27 20:15:00
3:35 PM,39.2,35.6,87,29.39,10.0,NNW,9.2,19.6,0.03,,Mostly Cloudy,330,2013-11-27 20:35:00
3:55 PM,39.2,35.6,87,29.38,10.0,NNW,5.8,-,0.04,,Mostly Cloudy,340,2013-11-27 20:55:00
4:15 PM,37.4,35.6,93,29.40,10.0,NW,10.4,16.1,0.01,,Overcast,310,2013-11-27 21:15:00
4:35 PM,-9999,-9999,N/A,29.42,10.0,NW,13.8,21.9,0.01,,Overcast,310,2013-11-27 21:35:00
4:55 PM,-9999,-9999,N/A,29.45,10.0,WNW,13.8,21.9,0.01,,Overcast,300,2013-11-27 21:55:00
5:15 PM,-9999,-9999,N/A,29.48,10.0,WNW,15.0,25.3,N/A,,Overcast,300,2013-11-27 22:15:00
5:35 PM,-9999,-9999,N/A,29.51,7.0,WNW,16.1,27.6,N/A,,Overcast,300,2013-11-27 22:35:00
5:55 PM,-9999,-9999,N/A,29.52,10.0,NW,18.4,24.2,N/A,,Overcast,310,2013-11-27 22:55:00
6:15 PM,37.4,32.0,81,29.55,10.0,WNW,16.1,24.2,N/A,,Overcast,300,2013-11-27 23:15:00
6:35 PM,-9999,-9999,N/A,29.56,10.0,WNW,15.0,23.0,N/A,,Overcast,300,2013-11-27 23:35:00
6:55 PM,-9999,-9999,N/A,29.57,10.0,NW,10.4,25.3,N/A,,Mostly Cloudy,310,2013-11-27 23:55:00
7:15 PM,-9999,-9999,N/A,29.58,10.0,WNW,11.5,18.4,N/A,,Mostly Cloudy,300,2013-11-28 00:15:00
7:35 PM,35.6,32.0,87,29.60,10.0,WNW,8.1,16.1,N/A,,Mostly Cloudy,290,2013-11-28 00:35:00
7:55 PM,-9999,-9999,N/A,29.61,10.0,WNW,10.4,-,N/A,,Mostly Cloudy,290,2013-11-28 00:55:00
8:15 PM,-9999,-9999,N/A,29.62,10.0,WNW,10.4,-,N/A,,Overcast,290,2013-11-28 01:15:00
8:35 PM,-9999,-9999,N/A,29.62,10.0,WNW,10.4,19.6,N/A,,Overcast,290,2013-11-28 01:35:00
8:55 PM,-9999,-9999,N/A,29.64,10.0,WNW,15.0,21.9,N/A,,Overcast,300,2013-11-28 01:55:00
9:15 PM,-9999,-9999,N/A,29.67,10.0,WNW,9.2,18.4,N/A,,Overcast,300,2013-11-28 02:15:00
9:35 PM,-9999,-9999,N/A,29.69,10.0,NW,11.5,24.2,N/A,,Overcast,310,2013-11-28 02:35:00
9:55 PM,-9999,-9999,N/A,29.70,10.0,WNW,13.8,23.0,N/A,,Overcast,300,2013-11-28 02:55:00
10:15 PM,-9999,-9999,N/A,29.72,10.0,WNW,17.3,25.3,N/A,,Overcast,300,2013-11-28 03:15:00
10:35 PM,-9999,-9999,N/A,29.74,10.0,WNW,11.5,23.0,N/A,,Scattered Clouds,290,2013-11-28 03:35:00
10:55 PM,-9999,-9999,N/A,29.76,10.0,WNW,16.1,27.6,N/A,,Clear,300,2013-11-28 03:55:00
11:15 PM,-9999,-9999,N/A,29.77,10.0,WNW,11.5,20.7,N/A,,Clear,300,2013-11-28 04:15:00
11:35 PM,-9999,-9999,N/A,29.79,10.0,WNW,10.4,17.3,N/A,,Scattered Clouds,290,2013-11-28 04:35:00
11:55 PM,33.8,21.2,60,29.81,10.0,WNW,11.5,26.5,N/A,,Overcast,290,2013-11-28 04:55:00